CW3590 Weather Reports


Display with metric or nautical units.
time (UTC)temp
F
wind
direction
speed
MPH
gust
MPH
rain 1hr
in
rain 24hr
in
rain mn
in
humidity
%
barometer
mb
20260508153009 68 48 1.0 6.0 0.00 0.00 0.00 79 1013.3
20260508150009 68 93 1.0 7.0 0.00 0.00 0.00 78 1013.9
20260508145009 65 90 2.0 6.0 0.00 0.00 0.00 91 1014.0
20260508144009 63 98 1.0 5.0 0.00 0.00 0.00 93 1013.9
20260508143009 63 76 1.0 7.0 0.00 0.00 0.00 93 1013.8
20260508141009 61 57 1.0 7.0 0.00 0.00 0.00 93 1013.8
20260508140009 61 52 1.0 2.0 0.00 0.00 0.00 93 1013.8
20260508135009 61 49 2.0 9.0 0.00 0.00 0.00 93 1013.7
20260508134009 60 59 1.0 8.0 0.00 0.00 0.00 93 1013.1
20260508133010 60 82 1.0 4.0 0.00 0.00 0.00 93 1012.9
20260508131009 59 0 0.0 2.0 0.00 0.00 0.00 92 1013.0
20260508125010 58 0 0.0 1.0 0.00 0.00 0.00 92 1013.8
20260508124008 58 0 0.0 1.0 0.00 0.00 0.00 91 1013.6
20260508123009 58 0 0.0 0.0 0.00 0.00 0.00 91 1013.4
20260508122010 57 0 0.0 2.0 0.00 0.00 0.00 91 1013.3
20260508120010 57 0 0.0 0.0 0.00 0.00 0.00 90 1013.2
20260508115009 57 0 0.0 0.0 0.00 0.00 0.00 90 1013.2
20260508114009 58 0 0.0 0.0 0.00 0.00 0.00 90 1013.1
20260508113009 58 0 0.0 1.0 0.00 0.00 0.00 90 1013.2
20260508112009 58 0 0.0 0.0 0.00 0.00 0.00 90 1013.4
20260508111010 58 0 0.0 0.0 0.00 0.00 0.00 90 1013.5
20260508110009 58 0 0.0 0.0 0.00 0.00 0.00 90 1013.8
20260508105009 58 0 0.0 0.0 0.00 0.00 0.00 90 1013.8
20260508104009 58 0 0.0 1.0 0.00 0.00 0.00 90 1013.7
20260508103008 58 0 0.0 1.0 0.00 0.00 0.00 91 1013.8
20260508102008 59 0 0.0 0.0 0.00 0.00 0.00 91 1014.1
20260508101010 59 0 0.0 0.0 0.00 0.00 0.00 91 1013.9
20260508100008 59 0 0.0 0.0 0.00 0.00 0.00 91 1013.9
20260508095009 59 0 0.0 0.0 0.00 0.00 0.00 91 1013.6
20260508094009 58 0 0.0 0.0 0.00 0.00 0.00 90 1013.7
20260508093009 58 0 0.0 0.0 0.00 0.00 0.00 90 1013.6
20260508091009 58 0 0.0 0.0 0.00 0.00 0.00 90 1013.6
20260508090008 58 0 0.0 0.0 0.00 0.00 0.00 90 1013.5
20260508085011 58 0 0.0 0.0 0.00 0.00 0.00 89 1013.4
20260508084009 58 0 0.0 0.0 0.00 0.00 0.00 89 1013.4
20260508083009 58 0 0.0 0.0 0.00 0.00 0.00 89 1013.5
20260508082008 58 0 0.0 0.0 0.00 0.00 0.00 89 1013.7
20260508081009 58 0 0.0 0.0 0.00 0.00 0.00 88 1013.6
20260508080009 59 0 0.0 0.0 0.00 0.00 0.00 88 1013.6
20260508075009 59 0 0.0 0.0 0.00 0.00 0.00 88 1013.6
20260508074009 59 0 0.0 0.0 0.00 0.00 0.00 88 1013.7
20260508073009 59 0 0.0 0.0 0.00 0.00 0.00 88 1013.8
20260508072008 59 0 0.0 0.0 0.00 0.00 0.00 88 1013.9
20260508065008 59 0 0.0 0.0 0.00 0.00 0.00 88 1014.0
20260508064008 59 0 0.0 0.0 0.00 0.00 0.00 87 1014.4
20260508063008 60 0 0.0 0.0 0.00 0.00 0.00 87 1014.1
20260508062008 60 0 0.0 0.0 0.00 0.00 0.00 87 1014.0
20260508055009 60 0 0.0 0.0 0.00 0.00 0.00 87 1013.9
20260508054008 60 0 0.0 0.0 0.00 0.00 0.00 87 1013.9
20260508050009 61 0 0.0 0.0 0.00 0.00 0.00 87 1014.4
20260508045009 61 0 0.0 0.0 0.00 0.00 0.00 87 1014.4
20260508044009 61 0 0.0 0.0 0.00 0.00 0.00 86 1014.7
20260508043009 61 0 0.0 0.0 0.00 0.00 0.00 86 1014.6
20260508042009 61 0 0.0 0.0 0.00 0.00 0.00 86 1014.5
20260508041009 61 0 0.0 0.0 0.00 0.00 0.00 86 1014.3
20260508040008 61 0 0.0 0.0 0.00 0.00 0.00 85 1014.6
20260508035008 62 0 0.0 0.0 0.00 0.00 0.00 85 1014.4
20260508034008 62 0 0.0 0.0 0.00 0.00 0.00 85 1014.6
20260508033009 62 0 0.0 0.0 0.00 0.00 0.00 85 1014.4
20260508031009 62 0 0.0 0.0 0.00 0.00 0.00 84 1014.4
20260508030008 63 0 0.0 0.0 0.00 0.00 0.00 84 1014.3
20260508025008 63 0 0.0 0.0 0.00 0.00 0.00 84 1014.2
20260508024009 63 0 0.0 0.0 0.00 0.00 0.00 83 1014.0
20260508022008 64 0 0.0 0.0 0.00 0.00 0.00 83 1013.7
20260508021008 64 0 0.0 0.0 0.00 0.00 0.00 83 1014.0
20260508020008 64 0 0.0 1.0 0.00 0.00 0.00 83 1014.0
20260508015008 64 0 0.0 2.0 0.00 0.00 0.00 83 1014.2
20260508014009 64 0 0.0 2.0 0.00 0.00 0.00 83 1014.2
20260508013008 65 162 0.0 1.0 0.00 0.00 0.00 82 1014.1
20260508011008 65 140 0.0 4.0 0.00 0.00 0.00 82 1014.2
20260508010010 65 0 0.0 0.0 0.00 0.00 0.00 82 1014.1
20260508005008 65 0 0.0 0.0 0.00 0.00 0.00 81 1014.1
20260508004009 65 0 0.0 0.0 0.00 0.00 0.00 81 1013.9
20260508003008 65 0 0.0 2.0 0.00 0.00 0.00 81 1014.1
20260508000009 66 0 0.0 0.0 0.00 0.00 0.00 81 1013.6
20260507235010 66 0 0.0 0.0 0.00 0.00 0.00 80 1013.7
20260507232008 67 0 0.0 1.0 0.00 0.00 0.00 78 1013.9
20260507231008 67 0 0.0 1.0 0.00 0.00 0.00 76 1014.2
20260507230008 67 0 0.0 0.0 0.00 0.00 0.00 76 1014.0
20260507225009 67 0 0.0 0.0 0.00 0.00 0.00 76 1014.2
20260507224008 67 0 0.0 2.0 0.00 0.00 0.00 76 1014.2
20260507223008 67 0 0.0 1.0 0.00 0.00 0.00 75 1014.1
20260507221008 68 0 0.0 1.0 0.00 0.00 0.00 74 1014.4
20260507213008 69 85 0.0 3.0 0.00 0.00 0.00 71 1014.2
20260507212008 69 73 1.0 4.0 0.00 0.00 0.00 71 1014.4
20260507211009 69 59 1.0 4.0 0.00 0.00 0.00 69 1014.4
20260507210008 70 46 1.0 4.0 0.00 0.00 0.00 68 1014.3
20260507205008 68 63 1.0 5.0 0.00 0.00 0.00 71 1014.6
20260507204008 68 64 1.0 3.0 0.00 0.00 0.00 72 1014.9
20260507203008 68 48 0.0 4.0 0.00 0.00 0.00 71 1015.0
20260507202008 68 11 1.0 2.0 0.00 0.00 0.00 69 1015.1
20260507201009 68 62 1.0 4.0 0.00 0.00 0.00 69 1015.2
20260507200008 68 64 2.0 7.0 0.00 0.00 0.00 68 1015.2
20260507195009 68 16 1.0 7.0 0.00 0.00 0.00 69 1015.2
20260507193007 68 56 1.0 5.0 0.00 0.00 0.00 70 1015.5
20260507192008 68 54 1.0 3.0 0.00 0.00 0.00 69 1015.6
20260507191008 68 69 2.0 5.0 0.00 0.00 0.00 70 1016.0
20260507190008 67 62 1.0 5.0 0.00 0.00 0.00 68 1016.3
20260507185008 68 90 1.0 6.0 0.00 0.00 0.00 70 1016.4
20260507184008 67 8 1.0 3.0 0.00 0.00 0.00 71 1016.4
20260507183008 67 21 2.0 6.0 0.00 0.00 0.00 69 1016.5
20260507182008 67 50 2.0 5.0 0.00 0.00 0.00 68 1016.4
20260507181009 66 355 1.0 6.0 0.00 0.00 0.00 69 1016.5
20260507180008 65 357 2.0 5.0 0.00 0.00 0.00 69 1016.6
20260507175008 65 42 2.0 6.0 0.00 0.00 0.00 71 1016.7
20260507173008 64 64 2.0 5.0 0.00 0.00 0.00 73 1016.7
20260507172007 63 38 2.0 9.0 0.00 0.00 0.00 72 1016.8
20260507171008 63 38 2.0 5.0 0.00 0.00 0.00 72 1016.9
20260507170007 63 30 2.0 7.0 0.00 0.00 0.00 73 1017.1
20260507164009 62 44 2.0 8.0 0.00 0.00 0.00 74 1017.4
20260507163009 62 16 2.0 6.0 0.00 0.00 0.00 73 1017.5
20260507162007 62 32 3.0 9.0 0.00 0.00 0.00 72 1017.7
20260507161007 62 34 3.0 9.0 0.00 0.00 0.00 73 1017.6
20260507160008 61 33 2.0 10.0 0.00 0.00 0.00 75 1017.5
20260507155008 61 45 2.0 5.0 0.00 0.00 0.00 77 1017.7
20260507154009 60 54 4.0 14.0 0.00 0.00 0.00 76 1017.9